Preview of NWS' New Version of Forecast
This preview is not operational and should not be used for support decisions.

Terminal Aerodrome Forecast (TAF)

Issued by National Weather Service (NWS)

                            
000
FTUS42 KKEY 221505 AAA
TAFEYW
TAF AMD
KEYW 221505Z 2215/2312 12008KT P6SM FEW020=